NOAA 16 DEB, 41358

Orbit data source: Space-Track

NOAA 16 DEB, 41358 is space debris in SSO originally from a launch on Thu, 21 Sep 2000 UTC launched from the Air Force Western Test Range (AFWTR). Debris objects in space refer to the collection of defunct objects orbiting the Earth. Examples of debris include non-operational satellites, rocket bodies, and fragments generated from explosions, collisions, or faulty payload assembly.

Loading next visibility...
Identifier
41358, 2000-055JB
Orbit
SSO
Country
Flag of USUS
Related business
Manufacturer
Unknown
Mission
Spacecraft
Bus & Motor
Unknown
Mass
Unknown
Launch date (UTC)
2000-09-21 (25 years ago)
Launch vehicle
Unknown
Launch site
Air Force Western Test Range (AFWTR)
Object type
Payload
Rocket body
Debris
Shape & HBR
Unknown shape, 0.1 m
Radar Cross Section
Small (<0.1 m²)

Expand to show TLE details & history
Last TLE update: 2 days ago

TLE from 2 days ago
0 NOAA 16 DEB
1 41358U 00055JB  25350.39406476  .00002730  00000-0  11438-2 0  9996
2 41358  98.6344  46.4832 0017198 147.3353 212.8895 14.26738583510116
Epoch: 2025-12-16T09:27Z
TLE epoch observation values (Epoch: 2025-12-16T09:27:27.195Z)
Latitude
0.00002°
Longitude
179.34097°
Altitude
815.958 km
Speed
7.44 km/s
True Right ascension
03h 05m 55s
True Declination
0° 00' 00"
Sunlit
Object was in full shadow at epoch
Visualization orbit readout
Latitude
Unknown
Longitude
Unknown
Altitude
Unknown
Speed
Unknown
Apparent Right ascension
Unknown
Apparent Declination
Unknown
Sunlit
N/A
Visualization observer readout
Local Sidereal Time
16:23:46
Azimuth
Unknown
Elevation
Unknown
Doppler factor
Unknown
Orbital elements
Apogee altitude
812.144 km
Perigee altitude
787.455 km
Semi-major axis
7,177.936 km
Eccentricity
0.00172
Inclination
98.6344°
RAAN
46.4832°
Arg. of periapsis
147.3353°
True anomaly
212.78268°
Mean anomaly
212.8895°
Eccentric anomaly
212.83607°
Mean motion
3.56898 °/min
Orbital period
100.87 mins
BSTAR
0.0011438
Loading maneuver chart data...
Computing Atmospheric mass density...
Loading historical data...
Loading historical data...
Loading historical data...
Loading historical data...
Loading historical data...
Loading historical data...
Loading historical data...

Documentation

Showing up to 5 results
|